Location: St. Louis
(38.6270°N, 90.1994°W)
Time: 17:52:22
(UTC-06:00)

Tiros 1 - Pass Details

Date: 08 December 2021
Orbit: 629 x 664 km, 48.4° (Epoch: 26 January)

Event Time Altitude Azimuth Distance (km) Brightness Sun altitude
Rises 17:35:44 0° 259° (W) 2,909 12.5 -10.8°
Reaches altitude 10° 17:38:09 10° 267° (W) 2,006 11.0 -11.3°
Maximum altitude 17:42:31 41° 338° (NNW) 921 8.0 -12.1°
Enters shadow 17:45:59 15° 44° (NE) 1,691 8.8 -12.7°
